Weather History for New Bern, NC

Change the Weather History Date:

Saturday, September 21, 2013

  Actual Average Record
Temperature  
Mean Temperature 74 °F 72 °F  
Max Temperature 83 °F 82 °F 92 °F (1948)
Min Temperature 64 °F 63 °F 52 °F (1962)
Degree Days  
Heating Degree Days 0 0  
Month to date heating degree days 0 0  
Since 1 July heating degree days 0 0  
Cooling Degree Days 9 8  
Month to date cooling degree days 237 215  
Year to date cooling degree days 1854 1744  
Growing Degree Days 23 (Base 50)    
Moisture  
Dew Point 67 °F    
Average Humidity 80    
Maximum Humidity 93    
Minimum Humidity 67    
Precipitation  
Precipitation T in 0.18 in 1.23 in (1982)
Month to date precipitation 2.03 4.24  
Year to date precipitation 31.17 41.04  
Snow  
Snow 0.00 in - - ()
Month to date snowfall 0.0  
Since 1 July snowfall 0.0  
Snow Depth 0.00 in    
Sea Level Pressure  
Sea Level Pressure 29.88 in    
Wind  
Wind Speed 3 mph (SSW)    
Max Wind Speed 10 mph    
Max Gust Speed 13 mph    
Visibility 10 miles    
Events      
T = Trace of Precipitation, MM = Missing Value Source: NWS Daily Summary

Daily Weather History Graph

Daily Weather History Graph

Search for Another Location

Airport:

Trip Planner

Search our weather history database for the weather conditions in past years. The results will help you decide how hot, cold, wet, or windy it might be!

Date:

Astronomy

Sep. 21, 2013 Rise Set
Actual Time 6:55 AM EDT 7:06 PM EDT
Civil Twilight 6:30 AM EDT 7:31 PM EDT
Nautical Twilight 6:00 AM EDT 8:00 PM EDT
Astronomical Twilight 5:30 AM EDT 8:30 PM EDT
Moon 8:23 PM EDT (9/21) 9:05 AM EDT (9/21)
Length of Visible Light 13h 01m
Length of Day
12h 10m
Waning Gibbous, 94% of the Moon is Illuminated
Sep 21
Waning Gibbous
Sep 26
Last Quarter
Oct 4
New
Oct 11
First Quarter
Oct 18
Full

Hourly Weather History & Observations

Time (EDT) Temp. Heat Index Dew Point Humidity Pressure Visibility Wind Dir Wind Speed Gust Speed Precip Events Conditions
12:54 AM 64.0 °F - 61.0 °F 90% 29.99 in 10.0 mi Calm Calm - N/A   Mostly Cloudy
1:54 AM 68.0 °F - 64.0 °F 87% 29.98 in 10.0 mi Calm Calm - N/A   Overcast
2:54 AM 66.9 °F - 63.0 °F 87% 29.97 in 10.0 mi Calm Calm - N/A   Mostly Cloudy
3:54 AM 68.0 °F - 64.0 °F 87% 29.96 in 10.0 mi Calm Calm - N/A   Overcast
4:54 AM 68.0 °F - 64.0 °F 87% 29.96 in 10.0 mi Calm Calm - N/A   Mostly Cloudy
5:54 AM 66.9 °F - 64.0 °F 90% 29.95 in 10.0 mi Calm Calm - N/A   Scattered Clouds
6:54 AM 68.0 °F - 64.9 °F 90% 29.95 in 10.0 mi NW 4.6 mph - N/A   Overcast
7:54 AM 69.1 °F - 66.0 °F 90% 29.94 in 10.0 mi Calm Calm - N/A   Overcast
8:47 AM 69.8 °F - 64.4 °F 83% 29.94 in 10.0 mi WSW 4.6 mph - N/A   Overcast
8:54 AM 69.1 °F - 66.0 °F 90% 29.94 in 10.0 mi SW 3.5 mph - N/A   Overcast
9:05 AM 69.8 °F - 66.2 °F 88% 29.94 in 10.0 mi South 3.5 mph - N/A   Overcast
9:54 AM 73.0 °F - 68.0 °F 84% 29.94 in 10.0 mi Calm Calm - N/A   Overcast
10:54 AM 78.1 °F - 68.0 °F 71% 29.92 in 10.0 mi South 3.5 mph - N/A   Overcast
11:54 AM 79.0 °F - 68.0 °F 69% 29.91 in 10.0 mi SSW 5.8 mph - N/A   Scattered Clouds
12:54 PM 80.1 °F 82.7 °F 68.0 °F 67% 29.88 in 10.0 mi Variable 5.8 mph - 0.00 in   Mostly Cloudy
1:13 PM 80.6 °F 83.2 °F 68.0 °F 65% 29.87 in 10.0 mi SSW 6.9 mph - N/A   Mostly Cloudy
1:28 PM 82.4 °F 85.4 °F 68.0 °F 62% 29.87 in 10.0 mi WSW 9.2 mph - N/A   Mostly Cloudy
1:44 PM 78.8 °F - 69.8 °F 74% 29.86 in 10.0 mi West 9.2 mph - N/A   Overcast
1:54 PM 80.1 °F 82.9 °F 69.1 °F 69% 29.86 in 10.0 mi West 6.9 mph - N/A   Mostly Cloudy
2:54 PM 78.1 °F - 69.1 °F 74% 29.85 in 10.0 mi West 6.9 mph - N/A   Overcast
3:54 PM 77.0 °F - 69.1 °F 76% 29.83 in 10.0 mi SSW 8.1 mph - N/A   Overcast
4:54 PM 79.0 °F - 69.1 °F 72% 29.81 in 10.0 mi South 8.1 mph - N/A   Scattered Clouds
5:54 PM 77.0 °F - 69.1 °F 76% 29.81 in 10.0 mi South 5.8 mph - N/A   Overcast
6:54 PM 75.0 °F - 69.1 °F 82% 29.80 in 10.0 mi South 6.9 mph - N/A   Overcast
7:54 PM 73.9 °F - 69.1 °F 85% 29.78 in 10.0 mi SSE 4.6 mph - N/A   Clear
8:54 PM 73.9 °F - 70.0 °F 87% 29.79 in 10.0 mi South 4.6 mph - N/A   Scattered Clouds
9:54 PM 75.0 °F - 70.0 °F 84% 29.78 in 10.0 mi South 4.6 mph - N/A   Partly Cloudy
10:54 PM 73.9 °F - 70.0 °F 87% 29.78 in 10.0 mi Calm Calm - N/A   Partly Cloudy
11:54 PM 73.0 °F - 70.0 °F 90% 29.77 in 10.0 mi Calm Calm - 0.00 in   Scattered Clouds